Ottumwa, IA

11:40 PM CDT on May 26, 2018 (GMT -0500)
Ottumwa Industrial

Weather History for KOTM - November, 2013

Change the Weather History Date:

Thursday, November 21, 2013

  Actual Average Record
Temperature  
Mean Temperature 37 °F 36 °F  
Max Temperature 43 °F 46 °F 70 °F (1990)
Min Temperature 30 °F 27 °F -6 °F (1937)
Degree Days  
Heating Degree Days 28 29  
Month to date heating degree days 479 491  
Since 1 July heating degree days 967 1015  
Cooling Degree Days 0 0  
Month to date cooling degree days 0 0  
Year to date cooling degree days 1014 938  
Moisture  
Dew Point 34 °F    
Average Humidity 87    
Maximum Humidity 92    
Minimum Humidity 82    
Precipitation  
Precipitation 0.18 in 0.07 in 0.85 in (1898)
Month to date precipitation 1.74 1.74  
Year to date precipitation 35.86 35.06  
Sea Level Pressure  
Sea Level Pressure 30.18 in    
Wind  
Wind Speed 11 mph (North)    
Max Wind Speed 22 mph    
Max Gust Speed 25 mph    
Visibility 4 miles    
Events Rain , Snow    
T = Trace of Precipitation, MM = Missing Value Source: NWS Daily Summary

Daily Weather History Graph

Daily Weather History Graph

Search for Another Location

Airport or City:

Astronomy

Nov. 21, 2013 Rise Set
Actual Time 7:04 AM CST 4:46 PM CST
Civil Twilight 6:34 AM CST 5:16 PM CST
Nautical Twilight 6:01 AM CST 5:49 PM CST
Astronomical Twilight 5:28 AM CST 6:22 PM CST
Moon 8:23 PM CST (11/21) 10:11 AM CST (11/21)
Length of Visible Light 10h 41m
Length of Day
9h 41m
Waning Gibbous, 85% of the Moon is Illuminated
Nov 21
Waning Gibbous
Nov 25
Last Quarter
Dec 2
New
Dec 9
First Quarter
Dec 17
Full

Hourly Weather History & Observations

Time (CST) Temp. Windchill Dew Point Humidity Pressure Visibility Wind Dir Wind Speed Gust Speed Precip Events Conditions
12:53 AM 37.0 °F 34.5 °F 35.1 °F 93% 30.04 in 5.0 mi ESE 3.5 mph - N/A   Clear
1:53 AM 35.1 °F 32.2 °F 34.0 °F 96% 30.05 in 3.0 mi ENE 3.5 mph - N/A   Clear
2:03 AM 35.6 °F 32.8 °F 33.8 °F 93% 30.03 in 2.5 mi ENE 3.5 mph - N/A   Clear
2:37 AM 35.6 °F 31.7 °F 33.8 °F 93% 30.03 in 1.5 mi ENE 4.6 mph - N/A   Clear
2:53 AM 35.1 °F 30.1 °F 34.0 °F 96% 30.06 in 1.5 mi East 5.8 mph - N/A   Clear
3:45 AM 35.6 °F 31.7 °F 35.6 °F 100% 30.04 in 2.0 mi East 4.6 mph - N/A   Clear
3:53 AM 35.1 °F 32.2 °F 34.0 °F 96% 30.06 in 2.0 mi ENE 3.5 mph - N/A   Clear
4:04 AM 35.6 °F 31.7 °F 33.8 °F 93% 30.04 in 1.8 mi ENE 4.6 mph - N/A   Clear
4:53 AM 35.1 °F 29.3 °F 33.1 °F 92% 30.06 in 2.0 mi NE 6.9 mph - N/A   Clear
5:53 AM 36.0 °F 31.1 °F 34.0 °F 93% 30.08 in 3.0 mi ENE 5.8 mph - N/A   Clear
6:17 AM 35.6 °F 29.9 °F 33.8 °F 93% 30.06 in 2.5 mi NE 6.9 mph - N/A   Clear
6:53 AM 36.0 °F 33.3 °F 34.0 °F 93% 30.10 in 2.5 mi NNE 3.5 mph - N/A   Clear
7:07 AM 35.6 °F 32.8 °F 33.8 °F 93% 30.08 in 3.0 mi NE 3.5 mph - N/A   Clear
7:15 AM 35.6 °F 32.8 °F 35.6 °F 100% 30.09 in 2.5 mi NNE 3.5 mph - N/A   Clear
7:35 AM 35.6 °F 30.7 °F 35.6 °F 100% 30.10 in 1.8 mi NNE 5.8 mph - N/A   Mostly Cloudy
7:53 AM 36.0 °F 30.3 °F 34.0 °F 93% 30.12 in 1.8 mi NNE 6.9 mph - N/A   Scattered Clouds
8:25 AM 37.4 °F 31.4 °F 35.6 °F 93% 30.13 in 2.0 mi North 8.1 mph - N/A   Mostly Cloudy
8:53 AM 37.0 °F 30.4 °F 36.0 °F 96% 30.17 in 2.0 mi North 9.2 mph - N/A   Overcast
9:05 AM 37.4 °F 30.3 °F 35.6 °F 93% 30.13 in 1.8 mi North 10.4 mph - N/A   Overcast
9:14 AM 37.4 °F 30.3 °F 35.6 °F 93% 30.14 in 1.8 mi North 10.4 mph - N/A   Overcast
9:25 AM 37.4 °F 28.9 °F 35.6 °F 93% 30.14 in 1.5 mi North 13.8 mph - N/A   Overcast
9:53 AM 37.0 °F 29.8 °F 36.0 °F 96% 30.17 in 1.5 mi NNE 10.4 mph - N/A   Overcast
10:19 AM 37.4 °F 29.3 °F 35.6 °F 93% 30.15 in 2.0 mi NNE 12.7 mph - N/A   Overcast
10:53 AM 39.0 °F 32.3 °F 37.0 °F 93% 30.18 in 2.5 mi NNE 10.4 mph - N/A   Overcast
10:58 AM 39.2 °F 33.0 °F 37.4 °F 93% 30.15 in 3.0 mi NE 9.2 mph - N/A   Overcast
11:53 AM 39.9 °F 34.5 °F 37.0 °F 89% 30.19 in 4.0 mi NNE 8.1 mph - N/A   Overcast
12:24 PM 41.0 °F 35.8 °F 37.4 °F 87% 30.15 in 6.0 mi NNE 8.1 mph - N/A   Overcast
12:53 PM 42.1 °F 35.7 °F 37.0 °F 82% 30.17 in 7.0 mi NNE 11.5 mph - N/A   Overcast
1:53 PM 43.0 °F 36.4 °F 37.9 °F 82% 30.15 in 7.0 mi NNE 12.7 mph - 0.00 in   Overcast
2:46 PM 42.8 °F 37.5 °F 37.4 °F 81% 30.15 in 8.0 mi NNE 9.2 mph - N/A   Overcast
2:53 PM 43.0 °F 36.4 °F 37.9 °F 82% 30.16 in 8.0 mi North 12.7 mph - N/A   Overcast
3:27 PM 39.2 °F 29.8 °F 37.4 °F 93% 30.17 in 3.0 mi NNW 18.4 mph - 0.01 in Rain Light Rain
3:29 PM 37.4 °F 27.8 °F 35.6 °F 93% 30.17 in 2.5 mi NNW 17.3 mph - 0.01 in Rain Light Rain
3:41 PM 37.4 °F 27.8 °F 37.4 °F 100% 30.18 in 2.0 mi NNW 17.3 mph - 0.01 in Rain Light Rain
3:53 PM 37.0 °F 27.4 °F 36.0 °F 96% 30.21 in 2.0 mi NNW 17.3 mph - 0.01 in Rain Light Rain
4:18 PM 35.6 °F 26.6 °F 35.6 °F 100% 30.20 in 3.0 mi NNW 13.8 mph - 0.00 in Rain Light Rain
4:25 PM 35.6 °F 25.2 °F 33.8 °F 93% 30.20 in 2.5 mi NNW 18.4 mph - 0.00 in Rain Light Rain
4:39 PM 35.6 °F 25.5 °F 33.8 °F 93% 30.21 in 4.0 mi NNW 17.3 mph - 0.00 in Rain Light Rain
4:53 PM 35.1 °F 24.5 °F 33.1 °F 92% 30.24 in 5.0 mi NNW 18.4 mph - 0.00 in Rain Light Rain
5:53 PM 33.1 °F 21.9 °F 30.9 °F 92% 30.26 in 7.0 mi North 18.4 mph - 0.01 in Rain Light Rain
6:53 PM 32.0 °F 21.2 °F 30.9 °F 96% 30.29 in 8.0 mi NNW 16.1 mph - 0.01 in   Overcast
7:53 PM 32.0 °F 21.6 °F 30.0 °F 92% 30.31 in 10.0 mi NNW 15.0 mph - 0.00 in   Overcast
8:10 PM 32.0 °F 21.6 °F 30.2 °F 93% 30.29 in 4.0 mi NNW 15.0 mph - 0.04 in Rain Light Freezing Rain
8:33 PM 32.0 °F 20.8 °F 30.2 °F 93% 30.30 in 6.0 mi NNW 17.3 mph - 0.08 in Rain Light Freezing Rain
8:53 PM 32.0 °F 22.1 °F 30.0 °F 92% 30.33 in 6.0 mi NNW 13.8 mph - 0.09 in Rain Light Freezing Rain
9:13 PM 32.0 °F 22.1 °F 30.2 °F 93% 30.31 in 7.0 mi NNW 13.8 mph - 0.01 in   Overcast
9:28 PM 32.0 °F 22.1 °F 30.2 °F 93% 30.31 in 6.0 mi NNW 13.8 mph - 0.01 in Rain Light Freezing Rain
9:53 PM 32.0 °F 21.6 °F 30.0 °F 92% 30.35 in 8.0 mi NNW 15.0 mph - 0.02 in Rain Light Freezing Rain
10:04 PM 32.0 °F 22.1 °F 30.2 °F 93% 30.32 in 5.0 mi NNW 13.8 mph - 0.00 in Snow Light Snow
10:53 PM 30.9 °F 20.2 °F 28.9 °F 92% 30.36 in 2.0 mi NW 15.0 mph - 0.03 in Snow Light Snow
11:18 PM 30.2 °F 18.9 °F 28.4 °F 93% 30.34 in 3.0 mi NNW 16.1 mph - 0.00 in Snow Light Snow
11:53 PM 30.0 °F 19.5 °F 28.0 °F 92% 30.38 in 4.0 mi NW 13.8 mph 21.9 mph 0.01 in Snow Light Snow